Regional Weather Roundup
Issued by NWS Newport/Morehead, NC

Current Version | Previous Version | Text Only | Print | Product List | Glossary Off
Versions: 1 2 3 4 5 6 7 8 9 10 11 12 13 14 15 16 17 18 19 20 21 22 23 24 25 26 27 28 29 30 31 32 33 34 35 36 37 38 39 40 41 42 43 44 45 46 47 48 49 50

000
ASUS42 KMHX 040324
RWRMHX
WEATHER ROUNDUP FOR EASTERN NORTH CAROLINA
NATIONAL WEATHER SERVICE NEWPORT/MOREHEAD CITY NC
1100 PM EDT SUN MAY 03 2015

NOTE: "FAIR" INDICATES FEW OR NO CLOUDS BELOW 12,000 FEET
WITH NO SIGNIFICANT WEATHER AND/OR OBSTRUCTIONS TO VISIBILITY

NCZ015>017-031-032-045>047-102-103-040400-
NORTH COAST

CITY           SKY/WX    TMP DP  RH WIND       PRES   REMARKS
EDENTON        CLEAR     65  50  57 SW8       30.22R
ELIZABETH CITY PTCLDY    65  51  60 S9        30.21R
KITTY HAWK     PTCLDY    64  51  64 SW5       30.21S
MANTEO         PTCLDY    63  53  69 SW8       30.23R

$$

NCZ045>047-081-094-103-104-040400-
CENTRAL COAST

CITY           SKY/WX    TMP DP  RH WIND       PRES   REMARKS
FRISCO         CLEAR     60  53  77 W7        30.24R
SWANQUARTER      N/A     64 N/A N/A SW5       30.21S

$$

NCZ095-097-098-100-101-040400-
SOUTHERN COAST

CITY           SKY/WX    TMP DP  RH WIND       PRES   REMARKS
BEAUFORT       MOCLDY    64  59  83 SW6       30.25R
CEDAR ISLAND     N/A     63 N/A N/A S6        30.27S
JACKSONVILLE   CLEAR     56  52  86 CALM      30.24R
PINEY ISLAND   CLOUDY   N/A N/A N/A CALM      30.24R
WILMINGTON     CLEAR     60  52  74 CALM      30.24R


$$

NCZ011>013-027>030-043-044-078>080-089-090>093-098-040400-
COASTAL PLAIN

CITY           SKY/WX    TMP DP  RH WIND       PRES   REMARKS
AHOSKIE        CLEAR     55  51  88 CALM      30.21R
CLINTON        CLEAR     62  46  55 CALM      30.24R
ELIZABETHTOWN  CLEAR     62  50  66 S3        30.24R
GOLDSBORO      CLEAR     64  46  51 S1        30.21R
GREENVILLE     CLEAR     63  50  63 S6        30.23R
HAVELOCK       CLEAR     59  53  80 SW6       30.25R
KENANSVILLE    FAIR      56  48  75 CALM      30.25R
KINSTON        CLEAR     61  48  62 S6        30.24R
NEW BERN       CLEAR     59  50  72 CALM      30.25R
RICHLANDS      CLEAR     54  46  76 CALM      30.26R
ROCKY MOUNT    CLEAR     63  48  58 S8        30.22R
WASHINGTON     CLEAR     63  46  53 SW5       30.24R
WHITEVILLE     CLEAR     61  53  75 CALM      30.24R

$$

AMZ130-135-150-152-154-156-158-170-250-252-270-ANZ085-086-088-633-658-670-040400-
MARINE OBSERVATIONS

STATION/POSITION TIME  TEMP    WIND        PRES    WAVE   SWELL
                       AIR SEA DIR/SP/G            HT/PER HT/PER
                 (UTC) (F)     (DEG/KT/KT) (MB)    (FT/S) (FT/S)
CHESAPEAKE LIGHT 0300   65     200/ 20/ 20 1022.6
64 E VA BEACH    0250   63 62  220/ 12/ 14 1022.3    5/11   5/11
DUCK             0300   66 56  200/ 12/ 14 1022.0
2 E DUCK         0311      56                N/A     4/12   2/12
OREGON INLET     0300   64 65  210/ 10/ 11 1023.5
13E OREGON INLT  0300      53                N/A     4/11   3/11
HATTERAS CG      0200   65 65  230/  6/  9 1023.2
DIAMOND BUOY     0250   64 60  260/  6/  8 1023.8    5/ 9   5/ 9
CAPE LOOKOUT     0300   67     210/  6/  7 1024.1
BEAUFORT LAB     0200          230/  3/  4 1022.9
27 SE WRIGHTSVLE 0300   69 72  190/ 10/ 12   N/A
5 SE WRIGHTSVLE  0208   69 67  190/  6/  8 1023.8
225 S CAPE HAT   0250   69 70   50/ 12/ 16 1024.5    7/13   7/13
41 SE CHARLESTON 0250   74 74  130/  8/ 10 1023.6    2/10   2/10

$$



USA.gov is the U.S. government's official web portal to all federal, state and local government web resources and services.